Regional Weather Roundup
Issued by NWS Albany, NY

Home | Current Version | Previous Version | Graphics & Text | Print | Product List | Glossary Off
Versions: 1 2 3 4 5 6 7 8 9 10 11 12 13 14 15 16 17 18 19 20 21 22 23 24 25 26 27 28

000
ASUS41 KALY 241510
RWRALY

NEW YORK STATE HOURLY WEATHER ROUNDUP
NATIONAL WEATHER SERVICE ALBANY NY
1100 AM EDT SAT SEP 24 2016

NOTE: "FAIR" INDICATES FEW OR NO CLOUDS BELOW 12,000 FEET WITH NO
SIGNIFICANT WEATHER AND/OR NO OBSTRUCTIONS TO VISIBILITY.

NYZ032-033-038>043-046>054-057>066-NYZ062>081-082-084-241600-
EAST


CITY           SKY/WX    TMP DP  RH WIND       PRES   REMARKS
ALBANY         PTSUNNY   59  48  67 N9        30.19F
GLENS FALLS    SUNNY     59  45  59 NE5       30.19F
POUGHKEEPSIE   SUNNY     62  43  49 N9        30.15S
NEWBURGH       MOSUNNY   63  46  55 NE12G21   30.17F
MONTGOMERY     SUNNY     65  45  48 NE12      30.15F
WHITE PLAINS   MOSUNNY   61  48  62 VRB6      30.12F
ISLIP          PTSUNNY   61  53  75 NE14      30.11S
NEW YORK CITY  PTSUNNY   63  52  67 NE10      30.13S
CENTRAL PARK   CLOUDY    61  52  72 VRB5      30.16S
$$

NYZ005>009-017-018-044>046-055-056-241600-
CENTRAL


CITY           SKY/WX    TMP DP  RH WIND       PRES   REMARKS
FULTON         SUNNY     61  45  55 N10       30.23S
SYRACUSE       MOSUNNY   58  48  69 MISG      30.23S
ROME           MOSUNNY   57  50  77 CALM      30.23F
ELMIRA         PTSUNNY   61  43  51 N10       30.21F
BINGHAMTON     MOSUNNY   56  43  61 NE10      30.19F
MONTICELLO     SUNNY     59  39  47 N10       30.18R
$$

NYZ026>034-041>043-087-241600-
NORTH


CITY           SKY/WX    TMP DP  RH WIND       PRES   REMARKS
WATERTOWN      SUNNY     58  46  64 N6        30.24S
FORT DRUM      NOT AVBL
OGDENSBURG     FAIR      58  47  65 W5        30.24S
MASSENA        SUNNY     58  43  57 W5        30.24S
SARANAC LAKE   MOSUNNY   53  33  46 NW8       30.19F
PLATTSBURGH    MOSUNNY   59  40  49 NE3       30.19F
$$

NYZ001>004-010>016-019>021-085-241600-
WEST


CITY           SKY/WX    TMP DP  RH WIND       PRES   REMARKS
NIAGARA FALLS  PTSUNNY   64  45  49 N12       30.26R
BUFFALO        PTSUNNY   61  46  57 NE9       30.26R
DUNKIRK        SUNNY     61  47  59 NE13      30.25S
JAMESTOWN      CLOUDY    57  45  62 N7        30.24S
WELLSVILLE     MOSUNNY   58  46  64 N9        30.26R
ROCHESTER      PTSUNNY   60  47  61 N12       30.25S
PENN YAN       PTSUNNY   61  43  51 VRB5      30.25R
$$

             KEY
       WCI = WIND CHILL INDEX
       VSB = VISIBILITY
       HX  = HEAT INDEX
$$




USA.gov is the U.S. government's official web portal to all federal, state and local government web resources and services.